Regional Weather Roundup
Issued by NWS Grand Forks, ND

Home | Current Version | Previous Version | Graphics & Text | Print | Product List | Glossary On
Versions: 1 2 3 4 5 6 7 8 9 10 11 12 13 14 15 16 17 18 19 20 21 22 23 24 25 26 27 28 29 30 31 32 33 34 35 36 37 38 39 40 41 42 43 44 45 46 47 48 49 50
000
ASUS43 KFGF 270710
RWRFGF
PRAIRIE TO PINES  WEATHER ROUNDUP
NATIONAL WEATHER SERVICE EASTERN NORTH DAKOTA/GRAND FORKS ND
100 AM CST THU NOV 27 2014

 **SATELLITE DATA USED TO AUGMENT SKY COVER AT AUTOMATED STATIONS**
 *****  WEATHER ACROSS EASTERN NORTH DAKOTA  *****

CITY           SKY/WX    TMP DP  RH WIND       PRES   REMARKS
GRAND FORKS    PTCLDY   -14 -18  82 W3        30.57S
GRAND FRKS AFB PTCLDY   -14 -19  77 W1        30.55F
GRAND FRKS NWS   N/A     -9 N/A N/A N3          N/A
DEVILS LAKE    PTCLDY    -9 -22  54 CALM      30.44F
FARGO          PTCLDY   -11 -19  68 CALM      30.57S
WAHPETON ARPT  MOSUNNY   -4  -9  77 N8        30.55S WCI -19
$$

 ***** WEATHER ACROSS CENTRAL AND WESTERN NORTH DAKOTA  *****

CITY           SKY/WX    TMP DP  RH WIND       PRES   REMARKS
BISMARCK       MOCLDY   -11 -15  82 NE7       30.46F WCI -26
MINOT          MOCLDY   -17 -23  73 CALM      30.41F
JAMESTOWN      MOCLDY   -22 -24  90 CALM      30.48S
MINOT AFB      CLOUDY   -22 -28  74 S3        30.42F
GARRISON         N/A     -1  -4  87 E8        30.39F WCI -15
WILLISTON      MOCLDY     8   4  83 SE3       30.33F
DICKINSON      CLOUDY    14  11  87 S14       30.27F WCI  -1
HETTINGER      CLOUDY    10   7  87 SE8       30.32S WCI  -2
$$

 *****  OTHER AIRPORT OBSERVATIONS IN OUR AREA  *****

CITY           SKY/WX    TMP DP  RH WIND       PRES   REMARKS
WALHALLA         N/A    -15 -18  84 CALM      30.54F
GRAFTON AIRPOR FAIR     -11 -17  77 CALM      30.57S
VALLEY CITY AR FAIR     -11 -15  84 CALM      30.50S
CANDO          FAIR     -13 -17  84 CALM      30.47F
CAVALIER APRT  FAIR     -13 -18  77 W3        30.55F
GWINNER        SUNNY     -8 -15  71 CALM      30.54R
SHEYENNE NWR     N/A    -15 -22  68 CALM      29.95S
ROLLA          FAIR     -13 -18  77 W7        30.42F WCI -29
 ***** THE ABOVE OBSERVATIONS ARE NON NWS ARE NOT QUALITY
       CONTROLLED AND MAY MIS-REPORT RAIN FOR SNOW...
$$

  *****  WEATHER ACROSS NORTHERN MINNESOTA  *****

CITY           SKY/WX    TMP DP  RH WIND       PRES   REMARKS
FLAG ISLAND    PTCLDY   -13 -18  77 NW6       30.47S WCI -27
WARROAD        PTCLDY   -13 -18  77 CALM      30.49S
ROSEAU         PTCLDY   -11 -17  77 CALM      30.50F
HALLOCK        MOCLDY   -17 -22  76 SW3       30.55S
THF RVR FALLS  MOCLDY    -9 -17  70 CALM      30.51R
BAUDETTE       PTCLDY   -12 -17  78 W3        30.47R
WASKISH        PTCLDY    -9 -13  84 CALM      30.46S
CROOKSTON      PTCLDY   -11 -17  77 NW3       30.57S
STEPHEN NDAWN    N/A    -11 -17  77 SW3         N/A
GREENBUSH NDAW   N/A    -13 -18  77 W3          N/A
$$
  *****  WEATHER ACROSS CENTRAL AND WEST MINNESOTA  *****

CITY           SKY/WX    TMP DP  RH WIND       PRES   REMARKS
FOSSTON        MOCLDY   -17 -22  76 CALM      30.50R
BEMIDJI        FAIR     -13 -17  80 W5        30.45R WCI -25
PARK RAPIDS    PTCLDY   -12 -16  82 NW6       30.45R WCI -26
ELBOW LAKE     FAIR      -7 -11  83 N6        30.50R WCI -20
WADENA         CLEAR     -8 -11  84 NW6       30.46S WCI -21
DETROIT LAKES  FAIR      -8 -13  77 N6        30.49S WCI -21
MOORHEAD       CLEAR     -9 -13  84 N3        30.56S
FERGUS FALLS   PTCLDY    -8 -15  71 N6        30.56S WCI -21
MORRIS MN      CLEAR     -6 -11  77 NW9       30.50R WCI -22
STAPLES        CLEAR     -8 -11  84 NW7       30.46R WCI -22
$$
  *****  WEATHER ELSEWHERE ACROSS MINNESOTA  *****

CITY           SKY/WX    TMP DP  RH WIND       PRES   REMARKS
DULUTH         CLEAR     -3  -9  75 N10       30.34R WCI -20
INTRNTL FALLS  PTCLDY   -12 -16  82 NW3       30.45S
ELY            CLEAR     -8 -11  84 NW3       30.38R
CLOQUET        CLEAR     -2  -8  78 NW8       30.38S WCI -17
WHEATON        PTCLDY    -8 -11  84 NW6       30.56S WCI -21
BRAINERD       CLEAR     -3  -8  79 N7        30.45R WCI -16
HIBBING        CLEAR     -5 -12  72 N9        30.40R WCI -22
ALEXANDRIA     CLEAR     -4  -9  79 N9        30.46S WCI -20
SAINT CLOUD    CLEAR      3  -6  66 NW7       30.46R WCI  -9
MINNEAPOLIS    PTCLDY     8  -3  61 N14       30.43R WCI  -8
$$

  *****  WEATHER ACROSS SOUTH DAKOTA  *****

CITY           SKY/WX    TMP DP  RH WIND       PRES   REMARKS
SIOUX FALLS    CLEAR      2  -7  66 N6        30.48R WCI  -9
BROOKINGS      NOT AVBL
WATERTOWN      MOCLDY    -7 -12  79 N3        30.45S
HURON          PTCLDY    -4  -9  79 NW5       30.52R WCI -15
SISSETON         N/A     -9 -13  83 NW7       30.53R WCI -24
ABERDEEN       MOCLDY    -9 -14  78 N3        30.53S
MITCHELL       CLOUDY     8   0  69 N8        30.53R WCI  -4
PIERRE         CLOUDY    11   6  81 E12       30.43F WCI  -3
MOBRIDGE       PTCLDY     1  -4  79 E9        30.41F WCI -14
RAPID CITY     CLOUDY    24  22  91 E7        30.26S WCI  16
$$

  *****  SOME WEATHER IN NEARBY STATES *****

CITY           SKY/WX    TMP DP  RH WIND       PRES   REMARKS
GLASGOW MT     CLOUDY    17  11  77 E15       30.19F WCI   2
GREAT FALLS MT MOCLDY    31  30  96 SW13      29.94F WCI  21
CHEYENNE WY    MOCLDY    40  26  57 W14       30.21S
SCOTTSBLUFF NE PTCLDY    18  16  92 E8        30.23F WCI   8
OMAHA NE       PTCLDY    18  12  77 N13       30.49R WCI   5
DES MOINES IA  FLURRIES  21  16  81 N12       30.40R WCI   9
DAVENPORT IA   LGT SNOW  22  18  85 NW7       30.29R FOG     WCI  13
CHICAGO IL     FLURRIES  26  21  81 NW13      30.18S WCI  15
EAU CLAIRE WI  CLOUDY    15   7  70 N9        30.33R WCI   3
LA CROSSE WI   CLOUDY    25  18  74 N7        30.31R WCI  17
$$

  *****  SOME NATIONAL WEATHER *****

CITY           SKY/WX    TMP DP  RH WIND       PRES   REMARKS
LA GUARDIA NY  CLOUDY    37  30  75 N16       29.88R
RALEIGH NC     MOCLDY    40  38  93 SE3       30.06S
ATLANTA GA     PTCLDY    47  25  42 W16G23    30.09R
NEW ORLEANS LA CLEAR     55  48  77 W10       30.28R
OKLAHOMA CITY  PTCLDY    36  24  62 N8        30.46R
ALBUQUERQUE NM PTCLDY    38  21  50 NE3       30.43R
SALT LAKE CITY PTCLDY    45  29  53 SE13      30.34F
LOS ANGELES CA CLEAR     66  34  30 NE5       30.13F
BOISE ID       CLOUDY    50  36  58 SE13      30.15F
SEATTLE WA     CLOUDY    56  50  80 S9        29.88S
$$

*** WEATHER ACROSS MANITOBA...SASKATCHEWAN AND ONTARIO ***
                ***ONTARIO***

CITY           SKY/WX    TMP DP  RH WIND       PRES   REMARKS
GERALDTON      CLEAR    -18 -26  69 NW5       30.32S WCI -31
THUNDER BAY    CLEAR     -4 -11  71 NW5       30.41R WCI -15
SIOUX LOOKOUT  CLEAR    -11 -17  77 N5        30.40S WCI -23
TORONTO        CLOUDY    30  19  64 NE5       30.06S
BIG TROUT LK   CLEAR    -20 -26  76 W6        30.35S WCI -36
PICKLE LAKE    NOT AVBL
DRYDEN         CLEAR    -11 -15  84 NW6       30.42R WCI -25
KENORA         CLEAR    -13 -17  84 NW3       30.43S
$$
                *** MANITOBA***

CITY           SKY/WX    TMP DP  RH WIND       PRES   REMARKS
BRANDON        CLEAR    -15 -20  76 NW2       30.48S
DAUPHIN        CLEAR     -9 -17  70 SW8       30.47S WCI -26
ISLAND LAKE    CLEAR    -17 -24  70 SW5       30.41F WCI -29
PILOT MOUND      N/A    -17 -22  76 SW5         N/A  WCI -29
THE PAS        CLEAR    -17 -22  76 S5        30.36F WCI -29
THOMPSON       CLEAR    -18 -24  76 SW7       30.29F WCI -35
WINNIPEG       CLEAR    -17 -24  70 SW2       30.55S
LYNN LAKE      FLURRIES  -8 -11  84 W9        30.14F WCI -25
CHURCHILL      CLEAR     -4 -13  65 W20       30.10F WCI -27
GILLAM         CLEAR    -15 -20  76 SW10      30.28S WCI -35
$$
                ***SASKATCHEWAN***

CITY           SKY/WX    TMP DP  RH WIND       PRES   REMARKS
ESTEVAN        PTCLDY   -13 -18  77 E6        30.34F WCI -27
KINDERSLEY     MOCLDY     9   5  85 NE7       30.12S WCI  -3
LLOYDMINSTER   CLOUDY    12  10  92 S6        30.10R WCI   3
PRINCE ALBERT  NOT AVBL
REGINA         FLURRIES   5   0  78 SE16      30.29F WCI -14
YORKTON        CLEAR    -15 -20  76 S12       30.35F WCI -36
N. BATTLEFORD  CLOUDY     5   3  92 E9        30.18F WCI  -9
LA RONGE       CLEAR     -2  -6  84 S2        30.21F
SASKATOON      CLOUDY     7   3  85 SW10      30.23F WCI  -8
SWIFT CURRENT  CLOUDY    23  21  93 S14       30.09F WCI  11
$$
NOTE: THESE ARE AUTOMATED STATIONS WITH LIMITED QUALITY CONTROL
      "FAIR" INDICATES FEW OR NO CLOUDS BELOW 12,000 FEET WITH NO
      SIGNIFICANT WEATHER AND/OR OBSTRUCTIONS TO VISIBILITY.
      SKY/WX - SKY CONDITION AND SIGNIFICANT WEATHER.
      TMP - AIR TEMPERATURE.    DP   - DEWPOINT TEMPERATURE.
      RH  - RELATIVE HUMIDITY.  PRES - PRESSURE.
      HX  - HEAT INDEX.         WCI  - WIND CHILL INDEX.
$


USA.gov is the U.S. government's official web portal to all federal, state and local government web resources and services.